Weather in Kyzyl-Kala

Russia / Karachay-Cherkess Republic     43°54′31″N   42°00′58″E
temp.,
°C
wind,
m/s
gust,
m/s
humid.,
%
clouds,
%
prec.,
mm/h
press.,
hPa
HPBL,
m
21 january, thu
thu2100:00−13s337720 0.0 102928
03:00−12s346813 0.0 103029
06:00−12s33640 0.0 103124
09:00−11s33640 0.0 103237
12:00−5sw23620 0.0 1032231
15:00−4s12710 0.0 103076
18:00−8sse22610 0.0 103321
21:00−7s44610 0.0 103332
22 january, fri
fri2200:00−6s44490 0.0 103329
03:00−6s33470 0.0 103223
06:00−6s34500 0.0 103124
09:00−4s33490 0.0 103126
12:00+1e11790 0.0 102926
15:00+1ne11690 0.0 102721
18:00−4sse22450 0.0 102821
21:00−4s33480 0.0 102822
23 january, sat
sat2300:00−3s33440 0.0 102822
03:00−3s33440 0.0 102722
06:00−3s23430 0.0 102722
09:00−1s23515 0.0 102623
12:00+2nw00896 0.0 102422
15:00+2ssw00755 0.0 102322
18:00−1s235259 0.0 102421
21:00−1s335480 0.0 102423
24 january, sun
sun2400:00−1s335349 0.0 102323
03:00−1s335124 0.0 102223
06:00−1s33480 0.0 102123
09:000s33521 0.0 102124
12:00+3s118416 0.0 101922
15:00+4sse116957 0.0 101722
18:00+3s2250100 0.0 101922
21:00+2s3353100 0.0 101923
25 january, mon
mon2500:00+3s335097 0.0 101924
03:00+3s345198 0.0 101926
06:00+2s3349100 0.0 101924
09:00+3s2351100 0.0 101924
12:00+5s118260 0.0 101723
15:00+4ese117631 0.0 101622
18:00+2s225263 0.0 101622
21:00+3s335381 0.0 101727